Погода в Уракаве

Япония     42°10′40″N   142°45′07″E
темп.,
°C
ветер,
м/с
пор.,
м/с
влажн.,
%
обл.,
%
осадки,
мм/ч
давл.,
гПа
погр.,
м
8 мая, сб
сб800:00+11всв3564100 0.0 1004102
03:00+11вюв1177100 0.0 100216
06:00+11в1289100 0.3 100183
09:00+11зюз278971 1.2 1002537
12:00+14зюз597211 0.6 1002983
15:00+13з58660 0.6 1003661
18:00+10з38784 0.0 1004314
21:00+8с22820 0.0 100528
9 мая, вс
вс900:00+7ссв21770 0.0 100514
03:00+7св22721 0.0 100318
06:00+11св22604 0.0 100259
09:00+13ююз2255100 0.0 1001360
12:00+12всв2578100 1.6 999339
15:00+10ю269756 4.9 998256
18:00+8ююз269999 0.8 999370
21:00+7з399731 0.8 1000423
10 мая, пн
пн1000:00+6сз3109170 0.0 1000393
03:00+6з1994100 0.4 999628
06:00+7зюз499399 0.6 1000611
09:00+8з7108398 1.0 1000966
12:00+7сз51278100 0.3 10011015
15:00+7сз71579100 0.4 10031320
18:00+6сз71788100 0.2 10051386
21:00+5зсз51491100 0.5 10081231
11 мая, вт
вт1100:00+5зсз51294100 0.4 10081056
03:00+5зсз51293100 0.4 10091085
06:00+6сз468476 0.0 1010614
09:00+8юз1168100 0.1 1011792
12:00+7юв337593 0.1 1013526
15:00+9вюв227174 0.3 1014743
18:00+6ююв238685 0.1 1017128
21:00+5юз1188100 0.1 1019105
12 мая, ср
ср1200:00+4ссз019240 0.1 102033
03:00+3ссз119348 0.1 102115
06:00+6ююз007945 0.0 1023401
09:00+9ююз32617 0.0 1023994
12:00+10ююз325912 0.0 1023866
15:00+9ю3164100 0.0 1022698
18:00+6ююв2385100 0.0 1023154
21:00+4всв2287100 0.0 102331